Tracking 30696 objects as of 15-Jun-2025
HD Live streaming from Space Station
objects crossing your sky now

STARLINK-30226

Track STARLINK-30226 now!
10-day predictions
STARLINK-30226 is classified as:


NORAD ID: 57497
Int'l Code: 2023-113C
Perigee: 565.4 km
Apogee: 567.1 km
Inclination: 43.0 °
Period: 95.8 minutes
Semi major axis: 6937 km
RCS: Unknown
Launch date: August 7, 2023
Source: United States (US)
Launch site: AIR FORCE EASTERN TEST RANGE (AFETR)
Your satellite tracking list
Your tracking list is empty




NASA's NSSDC Master Catalog

Two Line Element Set (TLE):
1 57497U 23113C   25166.01457590 -.00000865  00000-0 -48979-4 0  9995
2 57497  43.0029  31.9313 0001235 261.6848  98.3855 15.02534454103294
Source of the keplerian elements: AFSPC